Location: LDNL
(36.4545°S, 141.6685°E)
Time: 12:53:23
(UTC+11:00)

Vanguard 3 - Visible Passes

Search period start: 28 January 2022 00:00
Search period end: 07 February 2022 00:00
Orbit: 508 x 3260 km, 33.3° (Epoch: 27 January)

Date Brightness Start Highest point End Pass type
(mag) Time Alt. Az. Time Alt. Az. Time Alt. Az.
28 Jan 9.6 00:43:12 34° E 00:43:12 34° E 00:51:17 10° E visible
28 Jan 9.0 02:47:43 48° WNW 02:51:56 78° N 03:09:31 10° E visible
28 Jan 9.7 04:53:51 10° W 05:07:26 71° NNW 05:27:10 10° ENE visible
28 Jan 10.5 23:32:53 11° E 23:32:53 11° E 23:33:10 10° E visible
29 Jan 8.8 01:37:25 66° NE 01:37:25 66° NE 01:51:10 10° E visible
29 Jan 9.3 03:41:56 23° W 03:50:39 77° N 04:09:22 10° ENE visible
29 Jan 10.0 05:51:55 10° W 06:06:23 57° NNW 06:25:35 10° NE visible
30 Jan 9.8 00:27:14 27° E 00:27:14 27° E 00:33:04 10° E visible
30 Jan 8.8 02:31:46 59° WNW 02:34:26 78° N 02:51:04 10° E visible
30 Jan 9.6 04:36:54 10° W 04:49:29 67° NNW 05:08:40 10° ENE visible
30 Jan9.723:17:14E23:17:14E23:00:56NNWvisible
31 Jan 9.0 01:21:47 53° ENE 01:21:47 53° ENE 01:32:48 10° E visible
31 Jan 9.1 03:26:21 31° W 03:32:58 74° N 03:50:51 10° ENE visible
31 Jan 9.9 05:34:53 10° W 05:48:17 52° NNW 06:06:55 10° NE visible
31 Jan 8.9 21:50:44 10° NNE 21:51:56 13° NNE 21:51:56 13° NNE visible
01 Feb 10.1 00:12:02 18° E 00:12:02 18° E 00:14:57 10° E visible
01 Feb 8.6 02:16:37 76° NNW 02:17:02 77° N 02:32:38 10° E visible
01 Feb 9.4 04:21:12 15° W 04:31:38 62° NNW 04:50:01 10° NE visible
01 Feb 8.5 22:45:15 10° NNW 22:47:25 23° N 22:47:25 23° N visible
02 Feb 9.5 01:07:10 35° E 01:07:10 35° E 01:14:31 10° E visible
02 Feb 8.9 03:11:47 49° WNW 03:15:25 71° N 03:32:17 10° ENE visible
02 Feb 9.8 05:18:00 10° W 05:30:18 47° NNW 05:48:03 10° NE visible
02 Feb 8.6 21:33:36 10° N 21:36:26 15° NE 21:38:06 14° ENE visible
02 Feb 9.1 23:41:26 10° WNW 23:58:01 - E 23:42:42 19° NW visible
03 Feb 9.0 02:02:40 56° ENE 02:02:40 56° ENE 02:14:12 10° E visible
03 Feb 9.3 04:07:18 30° W 04:13:55 57° NNW 04:31:15 10° NE visible
03 Feb 10.3 06:16:51 10° W 06:28:52 31° NNW 06:44:25 10° NNE visible
03 Feb 7.8 22:28:33 10° NW 22:32:58 35° NNE 22:33:08 35° NNE visible
04 Feb 10.0 00:53:49 17° E 00:53:49 17° E 00:56:19 10° E visible
04 Feb 8.8 02:58:29 66° N 02:58:29 66° N 03:13:41 10° ENE visible
04 Feb 9.8 05:03:08 17° W 05:12:27 41° NNW 05:29:00 10° NE visible
04 Feb 8.3 21:16:33 10° N 21:19:23 17° NE 21:22:56 10° ENE visible
04 Feb 8.1 23:24:54 10° WNW 23:27:53 38° NW 23:27:53 38° NW visible
05 Feb 10.0 01:49:51 28° ENE 01:49:51 28° ENE 01:55:50 10° ENE visible
05 Feb 9.1 03:54:31 49° NW 03:56:18 51° NNW 04:12:23 10° NE visible
05 Feb 10.3 06:00:22 10° W 06:10:59 26° NNW 06:24:53 10° NNE visible
05 Feb 7.6 22:11:53 10° NW 22:16:02 38° NNE 22:17:55 30° ENE visible
06 Feb 9.5 00:21:44 10° W 00:41:21 - E 00:22:28 15° WNW visible
06 Feb 9.7 02:46:02 37° NE 02:46:02 37° NE 02:55:04 10° ENE visible
06 Feb 9.6 04:50:43 30° WNW 04:54:44 35° NNW 05:09:46 10° NNE visible
06 Feb 7.4 23:08:23 10° WNW 23:12:20 55° NNW 23:12:20 55° NNW visible
